When you browse on this site, cookies collect data to enhance your experience and personalize the content and advertising you see.
Visit our Privacy Policy to learn more. By continuing to use the site, you agree to this use of cookies and data.
  • In Deutschland
  • Länderverzeichnis
  • Für 7 Tage
  • Wassertemperatur
  • Wetterkarte
  • Widgets
  • user-avatar
    Anmelden

    Stündliche Wetter Dubaj

    Heute, 31 März, Dienstag

    Zeit Temperatur Niederschläge Wind Luftdruck Luftfeuchtigkeit
    00:00 +22°C° 0 mm 5 m/S 758 mmHg 64%
    01:00 +22°C° 0 mm 5 m/S 758 mmHg 65%
    02:00 +22°C° 0 mm 4 m/S 758 mmHg 66%
    03:00 +22°C° 0 mm 3 m/S 757 mmHg 67%
    04:00 +22°C° 0 mm 3 m/S 757 mmHg 72%
    05:00 +21°C° 0 mm 4 m/S 758 mmHg 71%
    06:00 +21°C° 0 mm 4 m/S 758 mmHg 70%
    07:00 +21°C° 0 mm 5 m/S 759 mmHg 69%
    08:00 +23°C° 0 mm 5 m/S 759 mmHg 60%
    09:00 +24°C° 0 mm 6 m/S 759 mmHg 52%
    10:00 +27°C° 0 mm 6 m/S 759 mmHg 43%
    11:00 +28°C° 0 mm 6 m/S 759 mmHg 41%
    12:00 +28°C° 0 mm 6 m/S 759 mmHg 38%
    13:00 +29°C° 0 mm 7 m/S 759 mmHg 35%
    14:00 +29°C° 0 mm 6 m/S 759 mmHg 36%
    15:00 +29°C° 0 mm 6 m/S 758 mmHg 37%
    16:00 +28°C° 0 mm 6 m/S 758 mmHg 39%
    17:00 +27°C° 0 mm 6 m/S 758 mmHg 45%
    18:00 +27°C° 0 mm 6 m/S 758 mmHg 50%
    19:00 +26°C° 0 mm 5 m/S 758 mmHg 56%
    20:00 +25°C° 0 mm 5 m/S 759 mmHg 58%
    21:00 +25°C° 0 mm 4 m/S 759 mmHg 60%
    22:00 +25°C° 0 mm 3 m/S 759 mmHg 61%
    23:00 +25°C° 0 mm 3 m/S 759 mmHg 63%

    Morgen, 1 April, Mittwoch

    Zeit Temperatur Niederschläge Wind Luftdruck Luftfeuchtigkeit
    00:00 +24°C° 0 mm 3 m/S 759 mmHg 65%
    01:00 +24°C° 0 mm 3 m/S 759 mmHg 67%
    02:00 +24°C° 0 mm 3 m/S 758 mmHg 69%
    03:00 +22°C° 0 mm 4 m/S 758 mmHg 70%
    04:00 +22°C° 0 mm 4 m/S 758 mmHg 72%
    05:00 +22°C° 0 mm 4 m/S 758 mmHg 72%
    06:00 +22°C° 0 mm 4 m/S 759 mmHg 72%
    07:00 +22°C° 0 mm 4 m/S 759 mmHg 73%
    08:00 +23°C° 0 mm 4 m/S 759 mmHg 64%
    09:00 +26°C° 0 mm 4 m/S 760 mmHg 55%
    10:00 +27°C° 0 mm 4 m/S 760 mmHg 46%
    11:00 +29°C° 0 mm 4 m/S 760 mmHg 41%
    12:00 +30°C° 0 mm 4 m/S 760 mmHg 35%
    13:00 +32°C° 0 mm 4 m/S 759 mmHg 29%
    14:00 +32°C° 0 mm 4 m/S 759 mmHg 31%
    15:00 +30°C° 0 mm 5 m/S 758 mmHg 34%
    16:00 +30°C° 0 mm 5 m/S 757 mmHg 36%
    17:00 +29°C° 0 mm 5 m/S 758 mmHg 41%
    18:00 +28°C° 0 mm 4 m/S 758 mmHg 46%
    19:00 +27°C° 0 mm 3 m/S 758 mmHg 52%
    20:00 +26°C° 0 mm 2 m/S 758 mmHg 53%
    21:00 +26°C° 0 mm 1 m/S 758 mmHg 54%
    22:00 +26°C° 0 mm 1 m/S 759 mmHg 56%
    23:00 +25°C° 0 mm 1 m/S 758 mmHg 57%

    übermorgen, 2 April, Donnerstag

    Zeit Temperatur Niederschläge Wind Luftdruck Luftfeuchtigkeit
    00:00 +25°C° 0 mm 1 m/S 758 mmHg 58%
    01:00 +25°C° 0 mm 1 m/S 758 mmHg 59%
    02:00 +24°C° 0 mm 1 m/S 757 mmHg 59%
    03:00 +24°C° 0 mm 1 m/S 757 mmHg 58%
    04:00 +24°C° 0 mm 1 m/S 756 mmHg 57%
    05:00 +24°C° 0 mm 1 m/S 757 mmHg 56%
    06:00 +24°C° 0 mm 1 m/S 757 mmHg 54%
    07:00 +24°C° 0 mm 1 m/S 758 mmHg 52%
    08:00 +26°C° 0 mm 1 m/S 758 mmHg 47%
    09:00 +26°C° 0 mm 0 m/S 758 mmHg 41%
    10:00 +27°C° 0 mm 0 m/S 758 mmHg 35%
    11:00 +31°C° 0 mm 1 m/S 758 mmHg 31%
    12:00 +32°C° 0 mm 1 m/S 758 mmHg 26%
    13:00 +35°C° 0 mm 2 m/S 758 mmHg 21%
    14:00 +34°C° 0 mm 2 m/S 757 mmHg 24%
    15:00 +34°C° 0 mm 3 m/S 757 mmHg 27%
    16:00 +33°C° 0 mm 3 m/S 756 mmHg 30%
    17:00 +33°C° 0 mm 3 m/S 756 mmHg 31%
    18:00 +31°C° 0 mm 3 m/S 756 mmHg 32%
    19:00 +30°C° 0 mm 2 m/S 757 mmHg 33%
    20:00 +30°C° 0 mm 2 m/S 757 mmHg 34%
    21:00 +29°C° 0 mm 2 m/S 757 mmHg 36%
    22:00 +29°C° 0 mm 1 m/S 757 mmHg 37%
    23:00 +29°C° 0 mm 1 m/S 757 mmHg 37%

    3 April, Freitag

    Zeit Temperatur Niederschläge Wind Luftdruck Luftfeuchtigkeit
    00:00 +28°C° 0 mm 1 m/S 757 mmHg 37%
    01:00 +28°C° 0 mm 1 m/S 757 mmHg 37%
    02:00 +28°C° 0 mm 2 m/S 756 mmHg 36%
    03:00 +28°C° 0 mm 2 m/S 756 mmHg 35%
    04:00 +27°C° 0 mm 2 m/S 756 mmHg 34%
    05:00 +28°C° 0 mm 2 m/S 756 mmHg 32%
    06:00 +28°C° 0 mm 2 m/S 756 mmHg 29%
    07:00 +28°C° 0 mm 2 m/S 757 mmHg 27%
    08:00 +30°C° 0 mm 2 m/S 757 mmHg 23%
    09:00 +34°C° 0 mm 2 m/S 757 mmHg 18%
    10:00 +36°C° 0 mm 2 m/S 757 mmHg 14%
    11:00 +37°C° 0 mm 2 m/S 757 mmHg 13%
    12:00 +38°C° 0 mm 3 m/S 757 mmHg 13%
    13:00 +39°C° 0 mm 3 m/S 757 mmHg 12%
    14:00 +40°C° 0 mm 4 m/S 756 mmHg 14%
    15:00 +39°C° 0 mm 5 m/S 756 mmHg 15%
    16:00 +39°C° 0 mm 6 m/S 755 mmHg 16%
    17:00 +38°C° 0 mm 6 m/S 755 mmHg 19%
    18:00 +36°C° 0 mm 5 m/S 755 mmHg 21%
    19:00 +35°C° 0 mm 5 m/S 755 mmHg 24%
    20:00 +34°C° 0 mm 4 m/S 756 mmHg 23%
    21:00 +34°C° 0 mm 3 m/S 756 mmHg 23%
    22:00 +34°C° 0 mm 2 m/S 756 mmHg 23%
    23:00 +32°C° 0 mm 2 m/S 756 mmHg 23%

    4 April, Samstag

    Zeit Temperatur Niederschläge Wind Luftdruck Luftfeuchtigkeit
    00:00 +32°C° 0 mm 2 m/S 756 mmHg 22%
    01:00 +33°C° 0 mm 3 m/S 756 mmHg 22%
    02:00 +33°C° 0 mm 3 m/S 755 mmHg 23%
    03:00 +33°C° 0 mm 3 m/S 755 mmHg 24%
    04:00 +33°C° 0 mm 4 m/S 755 mmHg 25%
    05:00 +33°C° 0 mm 4 m/S 755 mmHg 25%
    06:00 +33°C° 0 mm 4 m/S 756 mmHg 24%
    07:00 +33°C° 0 mm 4 m/S 756 mmHg 24%
    08:00 +34°C° 0 mm 4 m/S 757 mmHg 23%
    09:00 +36°C° 0 mm 4 m/S 757 mmHg 22%
    10:00 +38°C° 0 mm 4 m/S 758 mmHg 20%
    11:00 +38°C° 0 mm 4 m/S 757 mmHg 20%
    12:00 +40°C° 0 mm 4 m/S 757 mmHg 19%
    13:00 +40°C° 0 mm 5 m/S 757 mmHg 19%
    14:00 +40°C° 0 mm 4 m/S 756 mmHg 19%
    15:00 +38°C° 0 mm 4 m/S 756 mmHg 19%
    16:00 +38°C° 0 mm 4 m/S 756 mmHg 19%
    17:00 +37°C° 0 mm 5 m/S 756 mmHg 22%
    18:00 +36°C° 0 mm 5 m/S 756 mmHg 25%
    19:00 +34°C° 0 mm 5 m/S 756 mmHg 27%
    20:00 +33°C° 0 mm 4 m/S 757 mmHg 34%
    21:00 +32°C° 0 mm 4 m/S 757 mmHg 41%
    22:00 +30°C° 0 mm 3 m/S 758 mmHg 47%
    23:00 +29°C° 0 mm 2 m/S 757 mmHg 48%

    5 April, Sonntag

    Zeit Temperatur Niederschläge Wind Luftdruck Luftfeuchtigkeit
    00:00 +29°C° 0 mm 2 m/S 757 mmHg 49%
    01:00 +29°C° 0 mm 1 m/S 757 mmHg 50%
    02:00 +28°C° 0 mm 1 m/S 757 mmHg 52%
    03:00 +27°C° 0 mm 2 m/S 757 mmHg 55%
    04:00 +27°C° 0 mm 2 m/S 756 mmHg 57%
    05:00 +27°C° 0 mm 3 m/S 757 mmHg 57%
    06:00 +26°C° 0 mm 3 m/S 757 mmHg 56%
    07:00 +26°C° 0 mm 3 m/S 758 mmHg 55%
    08:00 +28°C° 0 mm 4 m/S 758 mmHg 46%
    09:00 +30°C° 0 mm 4 m/S 758 mmHg 36%
    10:00 +32°C° 0 mm 5 m/S 759 mmHg 26%
    11:00 +33°C° 0 mm 5 m/S 758 mmHg 24%
    12:00 +34°C° 0 mm 6 m/S 758 mmHg 21%
    13:00 +35°C° 0 mm 6 m/S 758 mmHg 19%
    14:00 +35°C° 0 mm 6 m/S 758 mmHg 20%
    15:00 +34°C° 0 mm 7 m/S 757 mmHg 21%
    16:00 +34°C° 0 mm 7 m/S 757 mmHg 23%
    17:00 +33°C° 0 mm 7 m/S 757 mmHg 29%
    18:00 +30°C° 0 mm 7 m/S 757 mmHg 36%
    19:00 +29°C° 0 mm 7 m/S 757 mmHg 42%
    20:00 +29°C° 0 mm 7 m/S 758 mmHg 45%
    21:00 +28°C° 0 mm 7 m/S 758 mmHg 47%
    22:00 +28°C° 0 mm 7 m/S 758 mmHg 49%
    23:00 +27°C° 0 mm 6 m/S 758 mmHg 52%
    Mehr zeigen